1545912001.17,23732,0.0,0.0,-4.61,-5.43,-5.39,0,*59
1545912002.36,23733,0.0,0.0,-4.61,-5.39,-5.35,0,*59
1545912003.55,23734,0.0,0.0,-4.61,-5.43,-5.39,0,*5F
1545912004.77,23735,0.0,0.0,-4.63,-5.55,-5.43,0,*56
1545912005.99,23736,0.0,0.0,-4.63,-5.47,-5.43,0,*56
1545912007.18,23737,0.0,0.0,-4.61,-5.47,-5.47,0,*51
1545912008.37,23738,0.0,0.0,-4.61,-5.43,-5.43,0,*5E
1545912009.58,23739,0.0,0.0,-4.63,-5.43,-5.47,0,*59
1545912010.78,23740,0.0,0.0,-4.61,-5.39,-5.43,0,*5C
1545912011.99,23741,0.0,0.0,-4.63,-5.43,-5.43,0,*52
1545912013.18,23742,0.0,0.0,-4.61,-5.35,-5.39,0,*5F
1545912014.37,23743,0.0,0.0,-4.61,-5.39,-5.35,0,*5E
1545912015.57,23744,0.0,0.0,-4.61,-5.39,-5.39,0,*55
1545912016.76,23745,0.0,0.0,-4.61,-5.39,-5.39,0,*54
1545912017.95,23746,0.0,0.0,-4.61,-5.43,-5.39,0,*5A
1545912019.17,23747,0.0,0.0,-4.63,-5.47,-5.43,0,*50
1545912020.36,23748,0.0,0.0,-4.61,-5.43,-5.39,0,*54
1545912021.55,23749,0.0,0.0,-4.61,-5.43,-5.43,0,*58
1545912022.76,23750,0.0,0.0,-4.63,-5.47,-5.47,0,*52
1545912023.95,23751,0.0,0.0,-4.61,-5.43,-5.43,0,*51
1545912025.14,23752,0.0,0.0,-4.61,-5.43,-5.43,0,*52
1545912026.36,23753,0.0,0.0,-4.63,-5.47,-5.47,0,*51
1545912027.55,23754,0.0,0.0,-4.61,-5.43,-5.43,0,*54
1545912028.77,23755,0.0,0.0,-4.63,-5.47,-5.43,0,*53
1545912029.96,23756,0.0,0.0,-4.61,-5.43,-5.43,0,*56
1545912031.17,23757,0.0,0.0,-4.63,-5.47,-5.47,0,*55
1545912032.38,23758,0.0,0.0,-4.63,-5.43,-5.47,0,*5E
1545912033.6,23759,0.0,0.0,-4.63,-5.47,-5.47,0,*5B
1545912034.82,23760,0.0,0.0,-4.63,-5.55,-5.47,0,*52
1545912036.01,23761,0.0,0.0,-4.61,-5.43,-5.43,0,*52
1545912037.2,23762,0.0,0.0,-4.61,-5.43,-5.43,0,*51
1545912038.42,23763,0.0,0.0,-4.63,-5.47,-5.47,0,*52
1545912039.64,23764,0.0,0.0,-4.63,-5.55,-5.55,0,*55
1545912040.84,23765,0.0,0.0,-4.61,-5.51,-5.51,0,*56
1545912042.03,23766,0.0,0.0,-4.61,-5.43,-5.43,0,*55
1545912043.25,23767,0.0,0.0,-4.63,-5.55,-5.47,0,*55
1545912044.47,23768,0.0,0.0,-4.63,-5.47,-5.47,0,*59
1545912045.66,23769,0.0,0.0,-4.61,-5.43,-5.51,0,*59
1545912046.87,23770,0.0,0.0,-4.63,-5.43,-5.43,0,*50
1545912048.08,23771,0.0,0.0,-4.63,-5.43,-5.39,0,*5C
1545912049.3,23772,0.0,0.0,-4.63,-5.43,-5.39,0,*5F
1545912050.51,23773,0.0,0.0,-4.63,-5.39,-5.39,0,*53
1545912051.7,23774,0.0,0.0,-4.61,-5.35,-5.35,0,*56
1545912052.92,23775,0.0,0.0,-4.63,-5.39,-5.39,0,*55
1545912054.13,23776,0.0,0.0,-4.63,-5.43,-5.39,0,*5B
1545912055.4,23777,0.0,0.0,-4.63,-5.31,-5.31,0,*57
1545912056.59,23778,0.0,0.0,-4.61,-5.35,-5.39,0,*56
1545912057.79,23779,0.0,0.0,-4.61,-5.35,-5.35,0,*5B
1545912059.01,23780,0.0,0.0,-4.61,-5.39,-5.27,0,*52
1545912060.22,23781,0.0,0.0,-4.63,-5.43,-5.43,0,*5E
1545912061.43,23782,0.0,0.0,-4.63,-5.43,-5.43,0,*5D
1545912062.63,23783,0.0,0.0,-4.61,-5.39,-5.39,0,*5E
1545912063.84,23784,0.0,0.0,-4.63,-5.43,-5.43,0,*5B
1545912065.05,23785,0.0,0.0,-4.63,-5.43,-5.43,0,*5A
1545912066.24,23786,0.0,0.0,-4.61,-5.43,-5.43,0,*5B
1545912067.45,23787,0.0,0.0,-4.63,-5.43,-5.43,0,*58
1545912068.66,23788,0.0,0.0,-4.63,-5.47,-5.43,0,*53
1545912069.88,23789,0.0,0.0,-4.63,-5.47,-5.43,0,*52
1545912071.11,23790,0.0,0.0,-4.63,-5.55,-5.55,0,*5E
1545912072.3,23791,0.0,0.0,-4.61,-5.43,-5.43,0,*5D
1545912073.51,23792,0.0,0.0,-4.63,-5.47,-5.47,0,*5C
1545912074.73,23793,0.0,0.0,-4.63,-5.47,-5.43,0,*59
1545912075.94,23794,0.0,0.0,-4.63,-5.39,-5.39,0,*5A
1545912077.14,23795,0.0,0.0,-4.61,-5.39,-5.39,0,*59
1545912078.35,23796,0.0,0.0,-4.63,-5.39,-5.43,0,*55
1545912079.56,23797,0.0,0.0,-4.63,-5.39,-5.43,0,*54
1545912080.78,23798,0.0,0.0,-4.63,-5.39,-5.43,0,*5B
1545912081.97,23799,0.0,0.0,-4.61,-5.39,-5.39,0,*55
1545912083.18,23800,0.0,0.0,-4.63,-5.43,-5.43,0,*58
1545912084.38,23801,0.0,0.0,-4.61,-5.39,-5.35,0,*57
1545912085.57,23802,0.0,0.0,-4.61,-5.39,-5.39,0,*58
1545912086.78,23803,0.0,0.0,-4.63,-5.43,-5.43,0,*5B
1545912087.99,23804,0.0,0.0,-4.63,-5.39,-5.39,0,*5C
1545912089.2,23805,0.0,0.0,-4.63,-5.43,-5.43,0,*5D
1545912090.4,23806,0.0,0.0,-4.61,-5.39,-5.35,0,*50
1545912091.59,23807,0.0,0.0,-4.61,-5.39,-5.39,0,*5D
1545912092.78,23808,0.0,0.0,-4.61,-5.39,-5.39,0,*52
1545912094.0,23809,0.0,0.0,-4.63,-5.39,-5.39,0,*51
1545912095.19,23810,0.0,0.0,-4.61,-5.35,-5.35,0,*5B
1545912096.41,23811,0.0,0.0,-4.63,-5.39,-5.39,0,*58
1545912097.62,23812,0.0,0.0,-4.63,-5.39,-5.39,0,*5B
1545912098.83,23813,0.0,0.0,-4.63,-5.43,-5.39,0,*57
1545912100.02,23814,0.0,0.0,-4.61,-5.43,-5.43,0,*5F
1545912101.29,23815,0.0,0.0,-4.63,-5.27,-5.31,0,*5B
1545912102.55,23816,0.0,0.0,-4.61,-5.23,-5.23,0,*5D
1545912103.77,23817,0.0,0.0,-4.61,-5.35,-5.27,0,*5F
1545912105.02,23818,0.0,0.0,-4.61,-5.27,-5.27,0,*53
1545912106.25,23819,0.0,0.0,-4.61,-5.35,-5.27,0,*51
1545912107.47,23820,0.0,0.0,-4.61,-5.35,-5.27,0,*5B
1545912108.7,23821,0.0,0.0,-4.61,-5.35,-5.27,0,*5A
1545912109.95,23822,0.0,0.0,-4.61,-5.27,-5.27,0,*5A
1545912111.2,23823,0.0,0.0,-4.61,-5.23,-5.27,0,*5F
1545912112.45,23824,0.0,0.0,-4.61,-5.27,-5.27,0,*5C
1545912113.68,23825,0.0,0.0,-4.61,-5.35,-5.27,0,*5E
1545912114.93,23826,0.0,0.0,-4.61,-5.27,-5.27,0,*5E
1545912116.18,23827,0.0,0.0,-4.61,-5.27,-5.27,0,*5F
1545912117.43,23828,0.0,0.0,-4.61,-5.27,-5.27,0,*50
1545912118.7,23829,0.0,0.0,-4.63,-5.31,-5.31,0,*53
1545912119.92,23830,0.0,0.0,-4.61,-5.35,-5.27,0,*5A
1545912121.15,23831,0.0,0.0,-4.61,-5.35,-5.23,0,*5F
1545912122.42,23832,0.0,0.0,-4.63,-5.31,-5.27,0,*5E
1545912123.65,23833,0.0,0.0,-4.61,-5.35,-5.27,0,*59
1545912124.92,23834,0.0,0.0,-4.59,-5.27,-5.27,0,*56
1545912126.17,23835,0.0,0.0,-4.61,-5.27,-5.23,0,*58
1545912127.43,23836,0.0,0.0,-4.61,-5.23,-5.27,0,*5B
1545912128.68,23837,0.0,0.0,-4.61,-5.27,-5.23,0,*5A
1545912129.93,23838,0.0,0.0,-4.61,-5.27,-5.27,0,*51
1545912131.2,23839,0.0,0.0,-4.59,-5.23,-5.27,0,*5F
1545912132.43,23840,0.0,0.0,-4.61,-5.35,-5.27,0,*5D
1545912133.65,23841,0.0,0.0,-4.61,-5.35,-5.27,0,*5C
1545912134.88,23842,0.0,0.0,-4.61,-5.35,-5.27,0,*5F
1545912136.07,23843,0.0,0.0,-4.61,-5.35,-5.35,0,*5D
1545912137.29,23844,0.0,0.0,-4.61,-5.35,-5.27,0,*59
1545912138.52,23845,0.0,0.0,-4.61,-5.35,-5.27,0,*58
1545912139.71,23846,0.0,0.0,-4.61,-5.35,-5.35,0,*58
1545912140.94,23847,0.0,0.0,-4.61,-5.35,-5.27,0,*5A
1545912142.18,23848,0.0,0.0,-4.59,-5.35,-5.23,0,*5A
1545912143.43,23849,0.0,0.0,-4.63,-5.39,-5.31,0,*5D
1545912144.68,23850,0.0,0.0,-4.61,-5.27,-5.27,0,*5F
1545912145.93,23851,0.0,0.0,-4.61,-5.27,-5.27,0,*5E
1545912147.15,23852,0.0,0.0,-4.61,-5.35,-5.27,0,*5E
1545912148.35,23853,0.0,0.0,-4.61,-5.35,-5.35,0,*5C
1545912149.54,23854,0.0,0.0,-4.61,-5.39,-5.39,0,*5B
1545912150.73,23855,0.0,0.0,-4.61,-5.39,-5.39,0,*5A
1545912151.93,23856,0.0,0.0,-4.61,-5.39,-5.39,0,*59
1545912153.12,23857,0.0,0.0,-4.61,-5.39,-5.39,0,*58
1545912154.32,23858,0.0,0.0,-4.61,-5.39,-5.39,0,*57
1545912155.51,23859,0.0,0.0,-4.61,-5.39,-5.39,0,*56
1545912156.7,23860,0.0,0.0,-4.61,-5.39,-5.39,0,*5C
1545912157.9,23861,0.0,0.0,-4.61,-5.39,-5.39,0,*5D
1545912159.11,23862,0.0,0.0,-4.63,-5.43,-5.39,0,*51
1545912160.33,23863,0.0,0.0,-4.61,-5.35,-5.27,0,*5C
1545912161.58,23864,0.0,0.0,-4.61,-5.27,-5.27,0,*58
1545912162.83,23865,0.0,0.0,-4.61,-5.27,-5.27,0,*59
1545912164.08,23866,0.0,0.0,-4.59,-5.35,-5.31,0,*55
1545912165.32,23867,0.0,0.0,-4.59,-5.35,-5.27,0,*53
1545912166.57,23868,0.0,0.0,-4.59,-5.35,-5.27,0,*5C
1545912167.78,23869,0.0,0.0,-4.59,-5.39,-5.39,0,*5E
1545912169.0,23870,0.0,0.0,-4.59,-5.39,-5.35,0,*5A
1545912170.19,23871,0.0,0.0,-4.61,-5.39,-5.35,0,*50
1545912171.4,23872,0.0,0.0,-4.63,-5.43,-5.39,0,*50
1545912172.59,23873,0.0,0.0,-4.61,-5.35,-5.39,0,*52
1545912173.79,23874,0.0,0.0,-4.61,-5.39,-5.39,0,*59
1545912175.0,23875,0.0,0.0,-4.59,-5.35,-5.39,0,*5F
1545912176.2,23876,0.0,0.0,-4.61,-5.39,-5.39,0,*5B
1545912177.39,23877,0.0,0.0,-4.61,-5.39,-5.39,0,*5A
1545912178.6,23878,0.0,0.0,-4.59,-5.43,-5.39,0,*53
1545912179.81,23879,0.0,0.0,-4.59,-5.43,-5.39,0,*52
1545912181.0,23880,0.0,0.0,-4.61,-5.43,-5.43,0,*52
1545912182.19,23881,0.0,0.0,-4.61,-5.43,-5.43,0,*53
1545912183.38,23882,0.0,0.0,-4.61,-5.43,-5.43,0,*50
1545912184.58,23883,0.0,0.0,-4.61,-5.47,-5.43,0,*55
1545912185.77,23884,0.0,0.0,-4.61,-5.43,-5.43,0,*56
1545912186.96,23885,0.0,0.0,-4.61,-5.43,-5.39,0,*5A
1545912188.16,23886,0.0,0.0,-4.61,-5.55,-5.39,0,*5E
1545912189.35,23887,0.0,0.0,-4.61,-5.43,-5.39,0,*58
1545912190.54,23888,0.0,0.0,-4.61,-5.43,-5.39,0,*57
1545912191.73,23889,0.0,0.0,-4.61,-5.43,-5.39,0,*56
1545912192.92,23890,0.0,0.0,-4.61,-5.43,-5.39,0,*5E
1545912194.11,23891,0.0,0.0,-4.61,-5.43,-5.39,0,*5F
1545912195.32,23892,0.0,0.0,-4.63,-5.47,-5.47,0,*53
1545912196.54,23893,0.0,0.0,-4.63,-5.47,-5.47,0,*52
1545912197.73,23894,0.0,0.0,-4.61,-5.43,-5.43,0,*57
1545912198.92,23895,0.0,0.0,-4.61,-5.43,-5.43,0,*56
1545912200.13,23896,0.0,0.0,-4.59,-5.43,-5.43,0,*5E
1545912201.32,23897,0.0,0.0,-4.61,-5.43,-5.43,0,*54
1545912202.51,23898,0.0,0.0,-4.61,-5.43,-5.43,0,*5B
1545912203.73,23899,0.0,0.0,-4.63,-5.47,-5.47,0,*58
1545912204.91,23900,0.0,0.0,-4.61,-5.43,-5.43,0,*5B
1545912206.11,23901,0.0,0.0,-4.61,-5.51,-5.43,0,*59
1545912207.33,23902,0.0,0.0,-4.63,-5.55,-5.47,0,*58
1545912208.52,23903,0.0,0.0,-4.61,-5.43,-5.43,0,*58
1545912209.72,23904,0.0,0.0,-4.61,-5.47,-5.47,0,*5F
1545912210.91,23905,0.0,0.0,-4.61,-5.43,-5.43,0,*5E
1545912212.1,23906,0.0,0.0,-4.61,-5.47,-5.47,0,*5D
1545912213.29,23907,0.0,0.0,-4.61,-5.43,-5.39,0,*51
1545912214.51,23908,0.0,0.0,-4.63,-5.47,-5.47,0,*51
1545912215.73,23909,0.0,0.0,-4.63,-5.47,-5.47,0,*50
1545912216.92,23910,0.0,0.0,-4.61,-5.51,-5.43,0,*59
1545912218.14,23911,0.0,0.0,-4.63,-5.55,-5.47,0,*5A
1545912219.37,23912,0.0,0.0,-4.63,-5.47,-5.55,0,*59
1545912220.58,23913,0.0,0.0,-4.63,-5.47,-5.47,0,*5B
1545912221.8,23914,0.0,0.0,-4.63,-5.47,-5.47,0,*5C
1545912223.02,23915,0.0,0.0,-4.63,-5.47,-5.47,0,*5D
1545912224.21,23916,0.0,0.0,-4.61,-5.43,-5.43,0,*5C
1545912225.4,23917,0.0,0.0,-4.61,-5.39,-5.39,0,*5D
1545912226.61,23918,0.0,0.0,-4.63,-5.43,-5.43,0,*50
1545912227.82,23919,0.0,0.0,-4.63,-5.43,-5.39,0,*5C
1545912229.03,23920,0.0,0.0,-4.63,-5.43,-5.39,0,*56
1545912230.26,23921,0.0,0.0,-4.61,-5.39,-5.31,0,*50
1545912231.45,23922,0.0,0.0,-4.61,-5.35,-5.39,0,*57
1545912232.64,23923,0.0,0.0,-4.61,-5.35,-5.39,0,*56
1545912233.85,23924,0.0,0.0,-4.63,-5.43,-5.43,0,*5F
1545912235.05,23925,0.0,0.0,-4.61,-5.39,-5.39,0,*5C
1545912236.26,23926,0.0,0.0,-4.63,-5.43,-5.43,0,*5D
1545912237.47,23927,0.0,0.0,-4.63,-5.43,-5.43,0,*5C
1545912238.68,23928,0.0,0.0,-4.63,-5.43,-5.43,0,*53
1545912239.87,23929,0.0,0.0,-4.61,-5.43,-5.39,0,*5D
1545912241.07,23930,0.0,0.0,-4.61,-5.51,-5.39,0,*56
1545912242.26,23931,0.0,0.0,-4.61,-5.39,-5.39,0,*59
1545912243.45,23932,0.0,0.0,-4.61,-5.39,-5.39,0,*5A
1545912244.66,23933,0.0,0.0,-4.63,-5.43,-5.43,0,*59
1545912245.85,23934,0.0,0.0,-4.61,-5.43,-5.43,0,*5C
1545912247.06,23935,0.0,0.0,-4.63,-5.43,-5.35,0,*5E
1545912248.27,23936,0.0,0.0,-4.63,-5.43,-5.39,0,*51
1545912249.48,23937,0.0,0.0,-4.63,-5.43,-5.43,0,*5D
1545912250.7,23938,0.0,0.0,-4.63,-5.47,-5.43,0,*56
1545912251.92,23939,0.0,0.0,-4.63,-5.47,-5.43,0,*57
1545912253.14,23940,0.0,0.0,-4.63,-5.55,-5.43,0,*5A
1545912254.32,23941,0.0,0.0,-4.61,-5.43,-5.43,0,*5E
1545912255.53,23942,0.0,0.0,-4.63,-5.43,-5.43,0,*5F
1545912256.75,23943,0.0,0.0,-4.63,-5.47,-5.43,0,*5A
1545912257.97,23944,0.0,0.0,-4.63,-5.47,-5.47,0,*59
1545912259.18,23945,0.0,0.0,-4.63,-5.47,-5.47,0,*58
1545912260.4,23946,0.0,0.0,-4.63,-5.47,-5.43,0,*5F
1545912261.62,23947,0.0,0.0,-4.63,-5.47,-5.43,0,*5E
1545912262.83,23948,0.0,0.0,-4.63,-5.47,-5.43,0,*51
1545912264.02,23949,0.0,0.0,-4.61,-5.43,-5.43,0,*56
1545912265.23,23950,0.0,0.0,-4.63,-5.43,-5.43,0,*5C
1545912266.44,23951,0.0,0.0,-4.63,-5.43,-5.43,0,*5D
1545912267.65,23952,0.0,0.0,-4.63,-5.43,-5.39,0,*53
1545912268.87,23953,0.0,0.0,-4.63,-5.39,-5.43,0,*52
1545912270.08,23954,0.0,0.0,-4.63,-5.43,-5.43,0,*58
1545912271.29,23955,0.0,0.0,-4.63,-5.43,-5.43,0,*59
1545912272.5,23956,0.0,0.0,-4.63,-5.43,-5.43,0,*5A
1545912273.71,23957,0.0,0.0,-4.63,-5.43,-5.43,0,*5B
1545912274.9,23958,0.0,0.0,-4.61,-5.43,-5.47,0,*52
1545912276.11,23959,0.0,0.0,-4.63,-5.47,-5.47,0,*55
1545912277.33,23960,0.0,0.0,-4.63,-5.47,-5.43,0,*5B
1545912278.55,23961,0.0,0.0,-4.63,-5.47,-5.47,0,*5E
1545912279.76,23962,0.0,0.0,-4.63,-5.47,-5.47,0,*5D
1545912280.98,23963,0.0,0.0,-4.63,-5.47,-5.43,0,*58
1545912282.19,23964,0.0,0.0,-4.63,-5.43,-5.43,0,*5B
1545912283.43,23965,0.0,0.0,-4.63,-5.39,-5.31,0,*52
1545912284.65,23966,0.0,0.0,-4.63,-5.39,-5.39,0,*59
1545912285.86,23967,0.0,0.0,-4.63,-5.43,-5.39,0,*55
1545912287.07,23968,0.0,0.0,-4.63,-5.39,-5.39,0,*57
1545912288.29,23969,0.0,0.0,-4.63,-5.39,-5.39,0,*56
1545912289.53,23970,0.0,0.0,-4.63,-5.39,-5.31,0,*56
1545912290.74,23971,0.0,0.0,-4.63,-5.39,-5.39,0,*5F
1545912291.96,23972,0.0,0.0,-4.63,-5.39,-5.39,0,*5C
1545912293.17,23973,0.0,0.0,-4.63,-5.43,-5.43,0,*5D
1545912294.38,23974,0.0,0.0,-4.63,-5.39,-5.39,0,*5A
1545912295.6,23975,0.0,0.0,-4.63,-5.39,-5.39,0,*5B
1545912296.79,23976,0.0,0.0,-4.61,-5.39,-5.35,0,*56
1545912298.04,23977,0.0,0.0,-4.63,-5.39,-5.31,0,*51
1545912299.28,23978,0.0,0.0,-4.63,-5.31,-5.39,0,*5E
1545912300.55,23979,0.0,0.0,-4.63,-5.31,-5.31,0,*57
1545912301.79,23980,0.0,0.0,-4.63,-5.43,-5.31,0,*54
1545912303.02,23981,0.0,0.0,-4.61,-5.35,-5.27,0,*51
1545912304.23,23982,0.0,0.0,-4.63,-5.43,-5.39,0,*5E
1545912305.42,23983,0.0,0.0,-4.61,-5.35,-5.39,0,*5C
1545912306.64,23984,0.0,0.0,-4.63,-5.39,-5.39,0,*55
1545912307.85,23985,0.0,0.0,-4.63,-5.43,-5.39,0,*59
1545912309.04,23986,0.0,0.0,-4.61,-5.35,-5.35,0,*55
1545912310.25,23987,0.0,0.0,-4.63,-5.43,-5.39,0,*5B
1545912311.44,23988,0.0,0.0,-4.61,-5.35,-5.35,0,*5B
1545912312.64,23989,0.0,0.0,-4.61,-5.39,-5.35,0,*56
1545912313.88,23990,0.0,0.0,-4.63,-5.39,-5.31,0,*58
1545912315.12,23991,0.0,0.0,-4.63,-5.43,-5.27,0,*53
1545912316.35,23992,0.0,0.0,-4.61,-5.39,-5.23,0,*5B
1545912317.6,23993,0.0,0.0,-4.61,-5.27,-5.27,0,*51
1545912318.79,23994,0.0,0.0,-4.61,-5.39,-5.39,0,*56
1545912320.01,23995,0.0,0.0,-4.63,-5.39,-5.39,0,*55
1545912321.25,23996,0.0,0.0,-4.63,-5.39,-5.31,0,*5E
1545912322.48,23997,0.0,0.0,-4.61,-5.35,-5.27,0,*56
1545912323.67,23998,0.0,0.0,-4.61,-5.39,-5.39,0,*5A
1545912324.86,23999,0.0,0.0,-4.61,-5.39,-5.35,0,*57
1545912326.07,24000,0.0,0.0,-4.63,-5.43,-5.43,0,*57
1545912327.26,24001,0.0,0.0,-4.61,-5.43,-5.39,0,*59
1545912328.48,24002,0.0,0.0,-4.63,-5.43,-5.39,0,*58
1545912329.69,24003,0.0,0.0,-4.63,-5.43,-5.43,0,*54
1545912330.9,24004,0.0,0.0,-4.63,-5.43,-5.43,0,*53
1545912332.11,24005,0.0,0.0,-4.63,-5.43,-5.43,0,*52
1545912333.32,24006,0.0,0.0,-4.63,-5.43,-5.39,0,*5C
1545912334.56,24007,0.0,0.0,-4.63,-5.39,-5.31,0,*58
1545912335.81,24008,0.0,0.0,-4.61,-5.23,-5.27,0,*59
1545912337.06,24009,0.0,0.0,-4.63,-5.39,-5.27,0,*51
1545912338.27,24010,0.0,0.0,-4.63,-5.43,-5.39,0,*5B
1545912339.47,24011,0.0,0.0,-4.61,-5.39,-5.39,0,*55
1545912340.68,24012,0.0,0.0,-4.63,-5.39,-5.39,0,*54
1545912341.87,24013,0.0,0.0,-4.61,-5.39,-5.43,0,*5A
1545912343.07,24014,0.0,0.0,-4.61,-5.35,-5.43,0,*51
1545912344.26,24015,0.0,0.0,-4.61,-5.39,-5.39,0,*51
1545912345.47,24016,0.0,0.0,-4.63,-5.43,-5.43,0,*50
1545912346.68,24017,0.0,0.0,-4.63,-5.43,-5.39,0,*5C
1545912347.89,24018,0.0,0.0,-4.63,-5.43,-5.39,0,*53
1545912349.1,24019,0.0,0.0,-4.63,-5.43,-5.43,0,*5F
1545912350.35,24020,0.0,0.0,-4.63,-5.39,-5.31,0,*5D
1545912351.6,24021,0.0,0.0,-4.61,-5.27,-5.23,0,*52
1545912352.79,24022,0.0,0.0,-4.61,-5.39,-5.39,0,*55
1545912354.01,24023,0.0,0.0,-4.63,-5.39,-5.39,0,*56
1545912355.2,24024,0.0,0.0,-4.61,-5.35,-5.35,0,*53
1545912356.47,24025,0.0,0.0,-4.63,-5.31,-5.31,0,*50
1545912357.74,24026,0.0,0.0,-4.63,-5.27,-5.27,0,*53
1545912358.99,24027,0.0,0.0,-4.61,-5.15,-5.15,0,*50
1545912360.25,24028,0.0,0.0,-4.61,-5.23,-5.23,0,*5F
1545912361.5,24029,0.0,0.0,-4.61,-5.23,-5.11,0,*5F
1545912362.77,24030,0.0,0.0,-4.63,-5.27,-5.19,0,*59
1545912364.02,24031,0.0,0.0,-4.61,-5.27,-5.27,0,*57
1545912365.27,24032,0.0,0.0,-4.61,-5.27,-5.23,0,*50
1545912366.52,24033,0.0,0.0,-4.61,-5.27,-5.23,0,*51
1545912367.79,24034,0.0,0.0,-4.63,-5.27,-5.27,0,*50
1545912369.07,24035,0.0,0.0,-4.63,-5.31,-5.27,0,*56
1545912370.32,24036,0.0,0.0,-4.61,-5.15,-5.23,0,*55
1545912371.58,24037,0.0,0.0,-4.61,-5.23,-5.23,0,*51
1545912372.83,24038,0.0,0.0,-4.61,-5.27,-5.27,0,*5E
1545912374.08,24039,0.0,0.0,-4.61,-5.27,-5.27,0,*5F
1545912375.27,24040,0.0,0.0,-4.61,-5.35,-5.35,0,*51
1545912376.48,24041,0.0,0.0,-4.59,-5.35,-5.35,0,*5B
1545912377.71,24042,0.0,0.0,-4.61,-5.35,-5.27,0,*50
1545912378.9,24043,0.0,0.0,-4.61,-5.35,-5.35,0,*52
1545912380.13,24044,0.0,0.0,-4.61,-5.35,-5.27,0,*56
1545912381.38,24045,0.0,0.0,-4.61,-5.23,-5.23,0,*54
1545912382.63,24046,0.0,0.0,-4.61,-5.27,-5.27,0,*57
1545912383.86,24047,0.0,0.0,-4.61,-5.35,-5.27,0,*55
1545912385.08,24048,0.0,0.0,-4.61,-5.35,-5.27,0,*5A
1545912386.28,24049,0.0,0.0,-4.61,-5.35,-5.35,0,*58
1545912387.49,24050,0.0,0.0,-4.63,-5.39,-5.39,0,*52
1545912388.68,24051,0.0,0.0,-4.61,-5.39,-5.35,0,*5D
1545912389.88,24052,0.0,0.0,-4.61,-5.35,-5.35,0,*52
1545912391.15,24053,0.0,0.0,-4.63,-5.31,-5.31,0,*51
1545912392.4,24054,0.0,0.0,-4.61,-5.27,-5.23,0,*50
1545912393.67,24055,0.0,0.0,-4.59,-5.23,-5.27,0,*5A
1545912394.92,24056,0.0,0.0,-4.59,-5.35,-5.23,0,*5A
1545912396.19,24057,0.0,0.0,-4.59,-5.27,-5.23,0,*58
1545912397.46,24058,0.0,0.0,-4.59,-5.27,-5.27,0,*53
1545912398.74,24059,0.0,0.0,-4.59,-5.27,-5.23,0,*56
1545912399.96,24060,0.0,0.0,-4.61,-5.35,-5.27,0,*50
1545912401.15,24061,0.0,0.0,-4.61,-5.35,-5.39,0,*5E
1545912402.37,24062,0.0,0.0,-4.63,-5.39,-5.43,0,*5E
1545912403.56,24063,0.0,0.0,-4.61,-5.39,-5.35,0,*5C
1545912404.76,24064,0.0,0.0,-4.61,-5.39,-5.35,0,*5B
1545912405.95,24065,0.0,0.0,-4.61,-5.39,-5.39,0,*56
1545912407.14,24066,0.0,0.0,-4.61,-5.39,-5.39,0,*55
1545912408.35,24067,0.0,0.0,-4.63,-5.43,-5.47,0,*52
1545912409.55,24068,0.0,0.0,-4.61,-5.39,-5.43,0,*56
1545912410.74,24069,0.0,0.0,-4.61,-5.35,-5.39,0,*56
1545912411.95,24070,0.0,0.0,-4.63,-5.43,-5.39,0,*5D
1545912413.15,24071,0.0,0.0,-4.61,-5.39,-5.39,0,*53
1545912414.34,24072,0.0,0.0,-4.61,-5.39,-5.35,0,*5C
1545912415.53,24073,0.0,0.0,-4.61,-5.39,-5.39,0,*51
1545912416.73,24074,0.0,0.0,-4.61,-5.39,-5.39,0,*56
1545912417.92,24075,0.0,0.0,-4.61,-5.43,-5.43,0,*57
1545912419.13,24076,0.0,0.0,-4.63,-5.43,-5.35,0,*57
1545912420.34,24077,0.0,0.0,-4.59,-5.39,-5.39,0,*5E
1545912421.53,24078,0.0,0.0,-4.61,-5.43,-5.39,0,*57
1545912422.75,24079,0.0,0.0,-4.63,-5.47,-5.43,0,*5D
1545912423.97,24080,0.0,0.0,-4.63,-5.47,-5.47,0,*5F
1545912425.18,24081,0.0,0.0,-4.63,-5.47,-5.47,0,*5E
1545912426.38,24082,0.0,0.0,-4.61,-5.39,-5.39,0,*5F
1545912427.65,24083,0.0,0.0,-4.63,-5.31,-5.27,0,*5B
1545912428.92,24084,0.0,0.0,-4.63,-5.27,-5.27,0,*5B
1545912430.17,24085,0.0,0.0,-4.61,-5.19,-5.19,0,*58
1545912431.42,24086,0.0,0.0,-4.61,-5.15,-5.15,0,*5B
1545912432.67,24087,0.0,0.0,-4.61,-5.15,-5.23,0,*5F
1545912433.93,24088,0.0,0.0,-4.61,-5.15,-5.23,0,*50
1545912435.18,24089,0.0,0.0,-4.61,-5.23,-5.23,0,*54
1545912436.43,24090,0.0,0.0,-4.61,-5.27,-5.27,0,*5C
1545912437.69,24091,0.0,0.0,-4.61,-5.27,-5.23,0,*59
1545912438.94,24092,0.0,0.0,-4.61,-5.23,-5.23,0,*5E
1545912440.19,24093,0.0,0.0,-4.61,-5.15,-5.15,0,*5F
1545912441.44,24094,0.0,0.0,-4.61,-5.23,-5.11,0,*59
1545912442.69,24095,0.0,0.0,-4.61,-5.15,-5.15,0,*59
1545912443.94,24096,0.0,0.0,-4.61,-5.23,-5.15,0,*5F
1545912445.2,24097,0.0,0.0,-4.61,-5.23,-5.27,0,*5F
1545912446.45,24098,0.0,0.0,-4.61,-5.23,-5.23,0,*54
1545912447.71,24099,0.0,0.0,-4.61,-5.23,-5.23,0,*55
1545912448.95,24100,0.0,0.0,-4.61,-5.11,-5.11,0,*54
1545912450.2,24101,0.0,0.0,-4.61,-5.11,-5.15,0,*51
1545912451.45,24102,0.0,0.0,-4.61,-5.23,-5.23,0,*56
1545912452.73,24103,0.0,0.0,-4.59,-5.23,-5.27,0,*58
1545912453.98,24104,0.0,0.0,-4.61,-5.23,-5.23,0,*50
1545912455.26,24105,0.0,0.0,-4.59,-5.15,-5.27,0,*5B
1545912456.53,24106,0.0,0.0,-4.59,-5.27,-5.23,0,*5D
1545912457.8,24107,0.0,0.0,-4.59,-5.27,-5.27,0,*58
1545912459.07,24108,0.0,0.0,-4.59,-5.27,-5.23,0,*53
1545912460.35,24109,0.0,0.0,-4.59,-5.23,-5.23,0,*56
1545912461.62,24110,0.0,0.0,-4.59,-5.27,-5.23,0,*5A
1545912462.89,24111,0.0,0.0,-4.59,-5.27,-5.27,0,*5F
1545912464.13,24112,0.0,0.0,-4.59,-5.35,-5.27,0,*5F
1545912465.41,24113,0.0,0.0,-4.59,-5.27,-5.23,0,*59
1545912466.68,24114,0.0,0.0,-4.59,-5.15,-5.23,0,*5F
1545912467.95,24115,0.0,0.0,-4.59,-5.27,-5.15,0,*5A
1545912469.22,24116,0.0,0.0,-4.59,-5.15,-5.15,0,*58
1545912470.44,24117,0.0,0.0,-4.57,-5.07,-4.99,0,*51
1545912471.7,24118,0.0,0.0,-4.59,-5.15,-4.93,0,*59
1545912472.89,24119,0.0,0.0,-4.57,-4.99,-4.99,0,*59
1545912474.1,24120,0.0,0.0,-4.57,-4.99,-4.93,0,*59
1545912475.34,24121,0.0,0.0,-4.59,-5.03,-4.99,0,*5E
1545912476.52,24122,0.0,0.0,-4.57,-4.99,-4.99,0,*51
1545912477.73,24123,0.0,0.0,-4.57,-5.11,-4.99,0,*51
1545912478.94,24124,0.0,0.0,-4.57,-4.93,-4.99,0,*5D
1545912480.12,24125,0.0,0.0,-4.57,-4.99,-4.99,0,*56
1545912481.37,24126,0.0,0.0,-4.57,-5.07,-5.11,0,*52
1545912482.61,24127,0.0,0.0,-4.57,-5.11,-5.07,0,*53
1545912483.86,24128,0.0,0.0,-4.57,-5.11,-5.23,0,*5A
1545912485.1,24129,0.0,0.0,-4.57,-5.19,-5.11,0,*52
1545912486.38,24130,0.0,0.0,-4.59,-5.15,-5.23,0,*59
1545912487.63,24131,0.0,0.0,-4.57,-5.15,-5.11,0,*57
1545912488.87,24132,0.0,0.0,-4.57,-5.11,-5.11,0,*50
1545912490.11,24133,0.0,0.0,-4.57,-5.07,-5.11,0,*56
1545912491.37,24134,0.0,0.0,-4.57,-5.07,-5.07,0,*56
1545912492.61,24135,0.0,0.0,-4.57,-5.11,-5.11,0,*57
1545912493.85,24136,0.0,0.0,-4.57,-5.11,-5.11,0,*54
1545912495.09,24137,0.0,0.0,-4.57,-5.19,-5.11,0,*5D
1545912496.36,24138,0.0,0.0,-4.55,-5.19,-5.19,0,*58
1545912497.63,24139,0.0,0.0,-4.55,-5.19,-5.11,0,*51
1545912498.91,24140,0.0,0.0,-4.59,-5.23,-5.23,0,*5B
1545912500.15,24141,0.0,0.0,-4.57,-5.23,-5.19,0,*5D
1545912501.4,24142,0.0,0.0,-4.57,-5.23,-5.19,0,*5E
1545912502.68,24143,0.0,0.0,-4.59,-5.23,-5.27,0,*5C
1545912503.93,24144,0.0,0.0,-4.57,-5.19,-5.23,0,*58
1545912505.17,24145,0.0,0.0,-4.57,-5.19,-5.19,0,*50
1545912506.44,24146,0.0,0.0,-4.55,-5.19,-5.19,0,*51
1545912507.71,24147,0.0,0.0,-4.55,-5.23,-5.19,0,*59
1545912508.98,24148,0.0,0.0,-4.55,-5.19,-5.23,0,*56
1545912510.23,24149,0.0,0.0,-4.57,-5.19,-5.23,0,*55
1545912511.51,24150,0.0,0.0,-4.55,-5.19,-5.23,0,*5F
1545912512.78,24151,0.0,0.0,-4.55,-5.23,-5.23,0,*57
1545912514.06,24152,0.0,0.0,-4.55,-5.31,-5.23,0,*57
1545912515.3,24153,0.0,0.0,-4.57,-5.31,-5.31,0,*57
1545912516.52,24154,0.0,0.0,-4.57,-5.35,-5.31,0,*54
1545912517.74,24155,0.0,0.0,-4.55,-5.35,-5.35,0,*53
1545912518.95,24156,0.0,0.0,-4.55,-5.35,-5.35,0,*50
1545912520.16,24157,0.0,0.0,-4.59,-5.39,-5.39,0,*5D
1545912521.41,24158,0.0,0.0,-4.55,-5.35,-5.31,0,*5A
1545912522.66,24159,0.0,0.0,-4.57,-5.31,-5.19,0,*57
1545912523.9,24160,0.0,0.0,-4.57,-5.31,-5.31,0,*57
1545912525.16,24161,0.0,0.0,-4.57,-5.23,-5.23,0,*56
1545912526.4,24162,0.0,0.0,-4.57,-5.19,-5.19,0,*55
1545912527.65,24163,0.0,0.0,-4.57,-5.19,-5.23,0,*5D
1545912528.9,24164,0.0,0.0,-4.57,-5.23,-5.19,0,*5A
1545912530.17,24165,0.0,0.0,-4.55,-5.23,-5.19,0,*59
1545912531.44,24166,0.0,0.0,-4.55,-5.19,-5.19,0,*53
1545912532.69,24167,0.0,0.0,-4.57,-5.19,-5.19,0,*50
1545912533.94,24168,0.0,0.0,-4.57,-5.23,-5.19,0,*56
1545912535.18,24169,0.0,0.0,-4.57,-5.19,-5.19,0,*5E
1545912536.45,24170,0.0,0.0,-4.55,-5.19,-5.19,0,*54
1545912537.72,24171,0.0,0.0,-4.55,-5.19,-5.19,0,*55
1545912538.99,24172,0.0,0.0,-4.55,-5.23,-5.19,0,*5F
1545912540.26,24173,0.0,0.0,-4.55,-5.19,-5.23,0,*5E
1545912541.54,24174,0.0,0.0,-4.55,-5.31,-5.23,0,*53
1545912542.81,24175,0.0,0.0,-4.55,-5.31,-5.31,0,*51
1545912544.02,24176,0.0,0.0,-4.55,-5.35,-5.35,0,*52
1545912545.26,24177,0.0,0.0,-4.55,-5.35,-5.31,0,*57
1545912546.48,24178,0.0,0.0,-4.55,-5.35,-5.35,0,*5C
1545912547.72,24179,0.0,0.0,-4.55,-5.31,-5.35,0,*59
1545912548.96,24180,0.0,0.0,-4.55,-5.35,-5.31,0,*5F
1545912550.18,24181,0.0,0.0,-4.57,-5.35,-5.31,0,*5C
1545912551.4,24182,0.0,0.0,-4.57,-5.35,-5.31,0,*5F
1545912552.64,24183,0.0,0.0,-4.55,-5.31,-5.35,0,*5C
1545912553.86,24184,0.0,0.0,-4.55,-5.35,-5.35,0,*5F
1545912555.08,24185,0.0,0.0,-4.57,-5.35,-5.31,0,*58
1545912556.3,24186,0.0,0.0,-4.57,-5.35,-5.31,0,*5B
1545912557.51,24187,0.0,0.0,-4.57,-5.31,-5.35,0,*5A
1545912558.71,24188,0.0,0.0,-4.57,-5.35,-5.35,0,*51
1545912559.93,24189,0.0,0.0,-4.57,-5.35,-5.31,0,*54
1545912561.17,24190,0.0,0.0,-4.57,-5.31,-5.31,0,*58
1545912562.39,24191,0.0,0.0,-4.57,-5.35,-5.31,0,*5D
1545912563.65,24192,0.0,0.0,-4.57,-5.31,-5.23,0,*59
1545912564.87,24193,0.0,0.0,-4.57,-5.35,-5.27,0,*58